Tracking 29065 objects as of 22-Jul-2024
HD Live streaming from Space Station
objects crossing your sky now

LANDSAT 3

Track LANDSAT 3 now!
10-day predictions
LANDSAT 3 is classified as:


NORAD ID: 10702
Int'l Code: 1978-026A
Perigee: 902.0 km
Apogee: 921.7 km
Inclination: 99.0 °
Period: 103.1 minutes
Semi major axis: 7282 km
RCS: 3.0427 m2 (large)
Launch date: March 5, 1978
Source: United States (US)
Launch site: AIR FORCE WESTERN TEST RANGE (AFWTR)
Your satellite tracking list
Your tracking list is empty




NASA's NSSDC Master Catalog

Two Line Element Set (TLE):
1 10702U 78026A   24203.90158039  .00000327  00000-0  26624-3 0  9994
2 10702  98.9636 161.4916 0013541 254.4189 171.0921 13.96851584364406
Source of the keplerian elements: AFSPC